Weather History for KIJX - October, 2012

Change the Weather History Date:

Thursday, October 4, 2012

  Actual Average (KSPI) Record (KSPI)
Temperature  
Mean Temperature 66 °F 59 °F  
Max Temperature 81 °F 71 °F 90 °F (1897)
Min Temperature 49 °F 47 °F 32 °F (1968)
Degree Days  
Heating Degree Days 0 7  
Month to date heating degree days 27  
Since 1 July heating degree days 108  
Cooling Degree Days 0 1  
Month to date cooling degree days 6  
Year to date cooling degree days 1105  
Growing Degree Days 16 (Base 50)    
Moisture  
Dew Point 54 °F    
Average Humidity 72    
Maximum Humidity 94    
Minimum Humidity 44    
Precipitation  
Precipitation 0.11 in 0.10 in 4.74 in (1941)
Month to date precipitation 0.40  
Year to date precipitation 28.95  
Snow  
Snow 0.00 in 0.00 in 0.00 in ()
Month to date snowfall 0.0  
Since 1 July snowfall 0.0  
Since 1 September snowfall 0.0  
Snow Depth -    
Sea Level Pressure  
Sea Level Pressure 30.12 in    
Wind  
Wind Speed 9 mph (SW)    
Max Wind Speed 21 mph    
Max Gust Speed 25 mph    
Visibility 10 miles    
Events Rain , Thunderstorm    
T = Trace of Precipitation, MM = Missing Value Source: NWS Daily Summary

Daily Weather History Graph

Daily Weather History Graph

Search for Another Location

Airport or City:

Trip Planner

Search our weather history database for the weather conditions in past years. The results will help you decide how hot, cold, wet, or windy it might be!

Date:

Astronomy

Oct. 04, 2012 Rise Set
Actual Time 7:00 AM CDT 6:37 PM CDT
Civil Twilight 6:33 AM CDT 7:04 PM CDT
Nautical Twilight 6:02 AM CDT 7:35 PM CDT
Astronomical Twilight 5:30 AM CDT 8:07 PM CDT
Moon 9:14 PM CDT (10/4) 11:17 AM CDT (10/4)
Length of Visible Light 12h 31m
Length of Day
11h 37m
Waning Gibbous, 82% of the Moon is Illuminated
Oct 4
Waning Gibbous
Oct 8
Last Quarter
Oct 15
New
Oct 21
First Quarter
Oct 29
Full

Hourly Weather History & Observations

Time (CDT) Temp. Heat Index Dew Point Humidity Pressure Visibility Wind Dir Wind Speed Gust Speed Precip Events Conditions
12:15 AM 64.0 °F - 56.7 °F 77% 30.06 in 10.0 mi South 4.6 mph - N/A   Mostly Cloudy
12:35 AM 63.9 °F - 56.7 °F 77% 30.06 in 10.0 mi South 4.6 mph - N/A   Overcast
12:55 AM 63.3 °F - 56.3 °F 78% 30.06 in 10.0 mi South 3.5 mph - N/A   Mostly Cloudy
1:15 AM 62.1 °F - 55.9 °F 80% 30.07 in 10.0 mi South 3.5 mph - N/A   Clear
1:35 AM 61.3 °F - 55.8 °F 82% 30.07 in 10.0 mi South 4.6 mph - N/A   Clear
1:55 AM 61.7 °F - 55.8 °F 81% 30.07 in 10.0 mi South 4.6 mph - N/A   Clear
2:15 AM 61.0 °F - 55.4 °F 82% 30.08 in 10.0 mi South 4.6 mph - N/A   Clear
2:35 AM 61.0 °F - 55.4 °F 82% 30.08 in 10.0 mi South 4.6 mph - N/A   Clear
2:55 AM 60.3 °F - 55.2 °F 83% 30.08 in 10.0 mi South 4.6 mph - N/A   Clear
3:15 AM 59.9 °F - 55.2 °F 84% 30.08 in 10.0 mi South 3.5 mph - N/A   Clear
3:35 AM 59.9 °F - 55.4 °F 85% 30.08 in 10.0 mi South 4.6 mph - N/A   Clear
3:55 AM 59.5 °F - 55.0 °F 85% 30.08 in 10.0 mi South 5.8 mph - N/A   Clear
4:15 AM 60.1 °F - 55.4 °F 85% 30.08 in 10.0 mi South 5.8 mph - N/A   Clear
4:35 AM 59.9 °F - 55.4 °F 85% 30.07 in 10.0 mi South 6.9 mph - N/A   Clear
4:55 AM 59.7 °F - 55.2 °F 85% 30.08 in 10.0 mi South 8.1 mph - N/A   Clear
5:15 AM 59.5 °F - 55.4 °F 86% 30.07 in 10.0 mi South 8.1 mph - N/A   Clear
5:35 AM 59.7 °F - 55.4 °F 86% 30.08 in 10.0 mi South 6.9 mph - N/A   Clear
5:55 AM 59.9 °F - 55.4 °F 85% 30.09 in 10.0 mi South 6.9 mph - N/A   Clear
6:15 AM 59.9 °F - 55.4 °F 85% 30.09 in 10.0 mi South 6.9 mph - N/A   Clear
6:35 AM 59.5 °F - 55.4 °F 86% 30.09 in 10.0 mi South 6.9 mph - N/A   Clear
6:55 AM 59.5 °F - 55.4 °F 86% 30.10 in 10.0 mi South 8.1 mph - N/A   Clear
7:15 AM 59.9 °F - 55.4 °F 85% 30.10 in 10.0 mi South 8.1 mph - N/A   Clear
7:35 AM 60.4 °F - 55.6 °F 84% 30.10 in 10.0 mi South 9.2 mph - N/A   Clear
7:55 AM 61.3 °F - 55.9 °F 82% 30.10 in 10.0 mi South 9.2 mph - N/A   Clear
8:15 AM 62.6 °F - 56.3 °F 80% 30.11 in 10.0 mi South 10.4 mph - N/A   Clear
8:35 AM 64.2 °F - 57.2 °F 78% 30.11 in 10.0 mi SSW 11.5 mph - N/A   Scattered Clouds
8:55 AM 66.4 °F - 57.9 °F 74% 30.10 in 10.0 mi SSW 15.0 mph 20.7 mph N/A   Scattered Clouds
9:15 AM 66.4 °F - 57.4 °F 73% 30.10 in 10.0 mi SSW 12.7 mph 18.4 mph N/A   Scattered Clouds
9:35 AM 68.5 °F - 58.3 °F 70% 30.11 in 10.0 mi SW 15.0 mph - N/A   Scattered Clouds
9:55 AM 70.9 °F - 58.3 °F 64% 30.11 in 10.0 mi SSW 16.1 mph 20.7 mph N/A   Clear
10:15 AM 72.7 °F - 58.1 °F 60% 30.10 in 10.0 mi SW 13.8 mph 20.7 mph N/A   Clear
10:35 AM 73.4 °F - 57.7 °F 58% 30.10 in 10.0 mi SSW 20.7 mph 25.3 mph N/A   Clear
10:55 AM 74.5 °F - 58.1 °F 57% 30.09 in 10.0 mi SW 17.3 mph - N/A   Clear
11:15 AM 76.3 °F - 57.6 °F 52% 30.09 in 10.0 mi SW 16.1 mph 21.9 mph N/A   Clear
11:35 AM 77.0 °F - 57.2 °F 50% 30.10 in 10.0 mi WSW 17.3 mph 25.3 mph N/A   Clear
11:55 AM 77.0 °F - 57.4 °F 51% 30.10 in 10.0 mi WSW 15.0 mph 20.7 mph N/A   Clear
12:15 PM 78.1 °F - 57.9 °F 50% 30.10 in 10.0 mi SW 15.0 mph 19.6 mph N/A   Scattered Clouds
12:35 PM 76.5 °F - 57.7 °F 52% 30.09 in 10.0 mi WSW 13.8 mph - N/A   Clear
12:55 PM 78.8 °F - 58.1 °F 49% 30.09 in 10.0 mi WSW 11.5 mph 18.4 mph N/A   Clear
1:15 PM 80.8 °F 80.9 °F 57.2 °F 44% 30.09 in 10.0 mi SW 18.4 mph 21.9 mph N/A   Clear
1:35 PM 81.0 °F 81.0 °F 57.0 °F 44% 30.09 in 10.0 mi WSW 18.4 mph 24.2 mph N/A   Clear
1:55 PM 81.0 °F 81.1 °F 57.7 °F 45% 30.09 in 10.0 mi WSW 15.0 mph 21.9 mph N/A   Clear
2:15 PM 80.8 °F 81.0 °F 57.6 °F 45% 30.08 in 10.0 mi SW 13.8 mph 18.4 mph N/A   Clear
2:35 PM 79.9 °F - 56.5 °F 45% 30.09 in 10.0 mi WSW 17.3 mph 23.0 mph N/A   Clear
2:55 PM 79.7 °F - 56.5 °F 45% 30.09 in 10.0 mi WSW 15.0 mph 21.9 mph N/A   Clear
3:15 PM 79.7 °F - 56.1 °F 44% 30.08 in 10.0 mi West 17.3 mph - N/A   Clear
3:35 PM 77.4 °F - 58.1 °F 51% 30.09 in 10.0 mi West 17.3 mph - N/A   Clear
3:55 PM 74.7 °F - 55.4 °F 51% 30.10 in 10.0 mi NW 18.4 mph 21.9 mph N/A   Clear
4:15 PM 70.5 °F - 50.9 °F 50% 30.12 in 10.0 mi NW 16.1 mph 21.9 mph N/A   Clear
4:35 PM 67.8 °F - 50.2 °F 53% 30.12 in 10.0 mi NW 15.0 mph 19.6 mph N/A   Clear
4:55 PM 67.3 °F - 49.1 °F 52% 30.12 in 10.0 mi WNW 18.4 mph 23.0 mph N/A   Clear
5:15 PM 64.9 °F - 48.2 °F 55% 30.13 in 10.0 mi NW 12.7 mph - N/A   Clear
5:35 PM 63.5 °F - 47.8 °F 57% 30.14 in 10.0 mi NW 13.8 mph - N/A   Clear
5:55 PM 63.0 °F - 47.8 °F 58% 30.15 in 10.0 mi WNW 13.8 mph - N/A   Scattered Clouds
6:15 PM 58.8 °F - 46.8 °F 64% 30.16 in 10.0 mi NW 17.3 mph 25.3 mph N/A   Scattered Clouds
6:35 PM 57.2 °F - 47.1 °F 69% 30.17 in 10.0 mi NW 15.0 mph 19.6 mph N/A Thunderstorm Mostly Cloudy
6:55 PM 55.0 °F - 47.1 °F 75% 30.18 in 10.0 mi NW 12.7 mph 19.6 mph N/A   Mostly Cloudy
7:15 PM 54.5 °F - 47.1 °F 76% 30.18 in 10.0 mi NW 12.7 mph 18.4 mph N/A   Mostly Cloudy
7:35 PM 53.8 °F - 46.6 °F 77% 30.18 in 10.0 mi NW 8.1 mph - N/A   Overcast
7:55 PM 53.4 °F - 46.6 °F 78% 30.18 in 10.0 mi NNW 9.2 mph - N/A Rain Light Rain
8:15 PM 52.9 °F - 46.8 °F 80% 30.19 in 10.0 mi NW 12.7 mph - N/A   Overcast
8:35 PM 52.0 °F - 46.9 °F 83% 30.20 in 10.0 mi NW 8.1 mph - N/A Rain Light Rain
8:55 PM 51.8 °F - 48.2 °F 88% 30.21 in 10.0 mi WNW 9.2 mph - N/A   Light Drizzle
9:15 PM 51.3 °F - 47.7 °F 87% 30.20 in 10.0 mi NW 5.8 mph - N/A Thunderstorm Overcast
9:35 PM 50.9 °F - 48.4 °F 91% 30.20 in 7.0 mi Calm Calm - 0.01 in Rain Light Rain
9:55 PM 50.9 °F - 48.9 °F 93% 30.21 in 7.0 mi West 5.8 mph - 0.03 in Rain , Thunderstorm Heavy Thunderstorms and Rain
10:15 PM 50.4 °F - 48.6 °F 94% 30.21 in 4.0 mi West 4.6 mph - 0.05 in Rain , Thunderstorm Light Thunderstorms and Rain
10:35 PM 50.4 °F - 48.4 °F 93% 30.21 in 10.0 mi West 4.6 mph - 0.06 in Rain Light Rain
10:55 PM 50.4 °F - 48.4 °F 93% 30.21 in 10.0 mi WNW 5.8 mph - 0.06 in   Drizzle
11:15 PM 50.7 °F - 48.7 °F 93% 30.20 in 10.0 mi NW 6.9 mph - N/A Rain Light Rain
11:35 PM 50.4 °F - 48.6 °F 94% 30.25 in 5.0 mi West 11.5 mph - 0.02 in Rain , Thunderstorm Heavy Thunderstorms and Rain
11:55 PM 49.8 °F - 48.2 °F 94% 30.22 in 7.0 mi WNW 4.6 mph - 0.02 in Rain , Thunderstorm Rain